When you browse on this site, cookies collect data to enhance your experience and personalize the content and advertising you see.
Visit our Privacy Policy to learn more. By continuing to use the site, you agree to this use of cookies and data.
  • In Österreich
  • Länderverzeichnis
  • Für 7 Tage
  • Wassertemperatur
  • Satellitenkarten
  • Wetterkarte
  • News
  • Widgets
  • user-avatar
    Anmelden

    Stündliche Wetter Rojtokmuzsaj

    Heute, 22 April, Montag

    Zeit Temperatur Niederschläge Wind Luftdruck Luftfeuchtigkeit
    00:00 +11°C° 0 mm 0 m/S 747 mmHg 55%
    01:00 +10°C° 0 mm 0 m/S 747 mmHg 56%
    02:00 +10°C° 0 mm 0 m/S 747 mmHg 57%
    03:00 +11°C° 0 mm 1 m/S 746 mmHg 58%
    04:00 +10°C° 0 mm 1 m/S 746 mmHg 60%
    05:00 +11°C° 0 mm 1 m/S 746 mmHg 60%
    06:00 +12°C° 0 mm 1 m/S 745 mmHg 59%
    07:00 +13°C° 0 mm 1 m/S 745 mmHg 56%
    08:00 +15°C° 0 mm 1 m/S 745 mmHg 53%
    09:00 +16°C° 0 mm 2 m/S 744 mmHg 50%
    10:00 +18°C° 0 mm 2 m/S 744 mmHg 46%
    11:00 +19°C° 0 mm 2 m/S 743 mmHg 44%
    12:00 +20°C° 0 mm 2 m/S 743 mmHg 42%
    13:00 +23°C° 0 mm 2 m/S 743 mmHg 41%
    14:00 +22°C° 0 mm 3 m/S 743 mmHg 41%
    15:00 +22°C° 0 mm 3 m/S 743 mmHg 42%
    16:00 +22°C° 0 mm 4 m/S 742 mmHg 42%
    17:00 +20°C° 0 mm 5 m/S 742 mmHg 48%
    18:00 +17°C° 0 mm 5 m/S 742 mmHg 55%
    19:00 +15°C° 0 mm 6 m/S 742 mmHg 61%
    20:00 +14°C° 0 mm 6 m/S 743 mmHg 63%
    21:00 +13°C° 0 mm 6 m/S 743 mmHg 66%
    22:00 +13°C° 0 mm 6 m/S 743 mmHg 69%
    23:00 +12°C° 0 mm 5 m/S 743 mmHg 73%

    Morgen, 23 April, Dienstag

    Zeit Temperatur Niederschläge Wind Luftdruck Luftfeuchtigkeit
    00:00 +11°C° 0 mm 4 m/S 743 mmHg 77%
    01:00 +10°C° 0 mm 3 m/S 743 mmHg 81%
    02:00 +10°C° 0 mm 3 m/S 743 mmHg 82%
    03:00 +10°C° 0 mm 3 m/S 742 mmHg 84%
    04:00 +10°C° 0 mm 3 m/S 742 mmHg 86%
    05:00 +10°C° 0 mm 4 m/S 742 mmHg 82%
    06:00 +10°C° 0 mm 5 m/S 742 mmHg 78%
    07:00 +10°C° 0 mm 6 m/S 742 mmHg 74%
    08:00 +11°C° 0.4 mm 6 m/S 742 mmHg 78%
    09:00 +11°C° 0.4 mm 6 m/S 743 mmHg 81%
    10:00 +11°C° 0.4 mm 6 m/S 743 mmHg 85%
    11:00 +11°C° 0.6 mm 7 m/S 743 mmHg 85%
    12:00 +10°C° 0.6 mm 7 m/S 743 mmHg 85%
    13:00 +10°C° 0.6 mm 7 m/S 743 mmHg 85%
    14:00 +10°C° 0.3 mm 7 m/S 743 mmHg 86%
    15:00 +9°C° 0.3 mm 7 m/S 742 mmHg 87%
    16:00 +9°C° 0.3 mm 6 m/S 742 mmHg 87%
    17:00 +9°C° 1.1 mm 5 m/S 742 mmHg 88%
    18:00 +9°C° 1.1 mm 5 m/S 742 mmHg 90%
    19:00 +10°C° 1.1 mm 4 m/S 742 mmHg 91%
    20:00 +10°C° 0.2 mm 4 m/S 742 mmHg 91%
    21:00 +11°C° 0.2 mm 4 m/S 742 mmHg 91%
    22:00 +11°C° 0.2 mm 4 m/S 742 mmHg 91%
    23:00 +12°C° 0 mm 4 m/S 742 mmHg 91%

    übermorgen, 24 April, Mittwoch

    Zeit Temperatur Niederschläge Wind Luftdruck Luftfeuchtigkeit
    00:00 +12°C° 0 mm 5 m/S 742 mmHg 90%
    01:00 +11°C° 0 mm 6 m/S 742 mmHg 90%
    02:00 +11°C° 0 mm 6 m/S 742 mmHg 91%
    03:00 +10°C° 0 mm 6 m/S 742 mmHg 91%
    04:00 +10°C° 0 mm 6 m/S 742 mmHg 92%
    05:00 +11°C° 0 mm 6 m/S 742 mmHg 90%
    06:00 +12°C° 0 mm 7 m/S 743 mmHg 87%
    07:00 +12°C° 0 mm 7 m/S 743 mmHg 84%
    08:00 +15°C° 0 mm 8 m/S 743 mmHg 77%
    09:00 +17°C° 0 mm 8 m/S 743 mmHg 70%
    10:00 +19°C° 0 mm 9 m/S 744 mmHg 63%
    11:00 +21°C° 0 mm 9 m/S 744 mmHg 60%
    12:00 +22°C° 0 mm 9 m/S 744 mmHg 57%
    13:00 +23°C° 0 mm 9 m/S 744 mmHg 54%
    14:00 +23°C° 0 mm 9 m/S 744 mmHg 53%
    15:00 +23°C° 0 mm 8 m/S 743 mmHg 52%
    16:00 +23°C° 0 mm 8 m/S 743 mmHg 51%
    17:00 +21°C° 0 mm 8 m/S 744 mmHg 55%
    18:00 +20°C° 0 mm 8 m/S 744 mmHg 58%
    19:00 +17°C° 0 mm 8 m/S 744 mmHg 61%
    20:00 +17°C° 0 mm 8 m/S 744 mmHg 60%
    21:00 +17°C° 0 mm 9 m/S 744 mmHg 59%
    22:00 +16°C° 0 mm 9 m/S 745 mmHg 58%
    23:00 +16°C° 0 mm 9 m/S 745 mmHg 60%

    25 April, Donnerstag

    Zeit Temperatur Niederschläge Wind Luftdruck Luftfeuchtigkeit
    00:00 +16°C° 0 mm 9 m/S 745 mmHg 62%
    01:00 +15°C° 0 mm 9 m/S 745 mmHg 63%
    02:00 +15°C° 0 mm 8 m/S 745 mmHg 65%
    03:00 +15°C° 0 mm 7 m/S 745 mmHg 67%
    04:00 +15°C° 0 mm 6 m/S 746 mmHg 68%
    05:00 +15°C° 0 mm 6 m/S 746 mmHg 69%
    06:00 +15°C° 0 mm 6 m/S 746 mmHg 70%
    07:00 +16°C° 0 mm 5 m/S 747 mmHg 70%
    08:00 +19°C° 0 mm 6 m/S 747 mmHg 64%
    09:00 +21°C° 0 mm 7 m/S 747 mmHg 58%
    10:00 +23°C° 0 mm 8 m/S 747 mmHg 52%
    11:00 +24°C° 0 mm 8 m/S 747 mmHg 48%
    12:00 +26°C° 0 mm 9 m/S 746 mmHg 45%
    13:00 +27°C° 0 mm 9 m/S 746 mmHg 41%
    14:00 +26°C° 0 mm 9 m/S 746 mmHg 43%
    15:00 +26°C° 0 mm 9 m/S 745 mmHg 46%
    16:00 +26°C° 0 mm 8 m/S 745 mmHg 48%
    17:00 +24°C° 0 mm 8 m/S 745 mmHg 52%
    18:00 +22°C° 0 mm 7 m/S 745 mmHg 56%
    19:00 +21°C° 0 mm 7 m/S 745 mmHg 60%
    20:00 +21°C° 0 mm 7 m/S 745 mmHg 59%
    21:00 +20°C° 0 mm 7 m/S 745 mmHg 57%
    22:00 +18°C° 0 mm 8 m/S 746 mmHg 56%
    23:00 +18°C° 0 mm 8 m/S 745 mmHg 57%

    26 April, Freitag

    Zeit Temperatur Niederschläge Wind Luftdruck Luftfeuchtigkeit
    00:00 +17°C° 0 mm 8 m/S 745 mmHg 57%
    01:00 +17°C° 0 mm 8 m/S 745 mmHg 58%
    02:00 +16°C° 0 mm 8 m/S 745 mmHg 59%
    03:00 +16°C° 0 mm 8 m/S 745 mmHg 59%
    04:00 +16°C° 0 mm 8 m/S 745 mmHg 60%
    05:00 +16°C° 0 mm 8 m/S 745 mmHg 60%
    06:00 +17°C° 0 mm 8 m/S 745 mmHg 61%
    07:00 +17°C° 0 mm 8 m/S 744 mmHg 61%
    08:00 +20°C° 0 mm 8 m/S 744 mmHg 56%
    09:00 +21°C° 0 mm 8 m/S 744 mmHg 52%
    10:00 +23°C° 0 mm 9 m/S 744 mmHg 47%
    11:00 +24°C° 0 mm 9 m/S 744 mmHg 45%
    12:00 +26°C° 0 mm 9 m/S 744 mmHg 42%
    13:00 +27°C° 0 mm 9 m/S 743 mmHg 40%
    14:00 +27°C° 0 mm 8 m/S 743 mmHg 41%
    15:00 +27°C° 0 mm 8 m/S 742 mmHg 43%
    16:00 +27°C° 0 mm 7 m/S 742 mmHg 44%
    17:00 +23°C° 0 mm 6 m/S 743 mmHg 48%
    18:00 +21°C° 0 mm 5 m/S 743 mmHg 51%
    19:00 +19°C° 0 mm 4 m/S 744 mmHg 55%
    20:00 +16°C° 0 mm 5 m/S 744 mmHg 56%
    21:00 +14°C° 0 mm 6 m/S 745 mmHg 57%
    22:00 +11°C° 0 mm 8 m/S 746 mmHg 58%
    23:00 +11°C° 0 mm 8 m/S 747 mmHg 57%

    27 April, Samstag

    Zeit Temperatur Niederschläge Wind Luftdruck Luftfeuchtigkeit
    00:00 +11°C° 0 mm 8 m/S 747 mmHg 56%
    01:00 +11°C° 0 mm 8 m/S 748 mmHg 54%
    02:00 +11°C° 0 mm 7 m/S 748 mmHg 55%
    03:00 +10°C° 0 mm 7 m/S 748 mmHg 55%
    04:00 +10°C° 0 mm 6 m/S 749 mmHg 56%
    05:00 +10°C° 0 mm 6 m/S 749 mmHg 57%
    06:00 +10°C° 0 mm 5 m/S 749 mmHg 59%
    07:00 +10°C° 0 mm 5 m/S 750 mmHg 60%
    08:00 +12°C° 0 mm 5 m/S 750 mmHg 59%
    09:00 +13°C° 0 mm 5 m/S 750 mmHg 57%
    10:00 +13°C° 0 mm 5 m/S 750 mmHg 56%
    11:00 +15°C° 0 mm 5 m/S 749 mmHg 51%
    12:00 +17°C° 0 mm 4 m/S 749 mmHg 47%
    13:00 +19°C° 0 mm 4 m/S 748 mmHg 43%
    14:00 +19°C° 0 mm 4 m/S 748 mmHg 44%
    15:00 +19°C° 0 mm 4 m/S 748 mmHg 45%
    16:00 +19°C° 0 mm 5 m/S 748 mmHg 46%
    17:00 +17°C° 0 mm 4 m/S 748 mmHg 52%
    18:00 +14°C° 0 mm 4 m/S 748 mmHg 58%
    19:00 +12°C° 0 mm 4 m/S 748 mmHg 64%
    20:00 +11°C° 0 mm 3 m/S 749 mmHg 64%
    21:00 +11°C° 0 mm 3 m/S 749 mmHg 65%
    22:00 +10°C° 0 mm 3 m/S 749 mmHg 66%
    23:00 +9°C° 0 mm 3 m/S 749 mmHg 67%
    Mehr zeigen